EW3754 Weather Reports


Display with metric or nautical units.
time (UTC)temp
F
wind
direction
speed
MPH
gust
MPH
rain 1hr
in
rain 24hr
in
rain mn
in
humidity
%
barometer
mb
20210120030904 42 355 0.0 2.0 0.00 0.00 0.00 66 1020.7
20210120030403 42 355 0.0 0.0 0.00 0.00 0.00 65 1020.6
20210120025902 42 355 0.0 0.0 0.00 0.00 0.00 64 1020.5
20210120025404 42 355 0.0 0.0 0.00 0.00 0.00 64 1020.6
20210120024904 42 355 0.0 2.0 0.00 0.00 0.00 64 1020.5
20210120024406 43 355 0.0 0.0 0.00 0.00 0.00 64 1020.5
20210120023903 43 355 0.0 0.0 0.00 0.00 0.00 63 1020.6
20210120023404 43 355 0.0 2.0 0.00 0.00 0.00 63 1020.6
20210120022902 43 355 0.0 2.0 0.00 0.00 0.00 63 1020.6
20210120022403 43 355 0.0 2.0 0.00 0.00 0.00 62 1020.7
20210120021906 43 355 0.0 0.0 0.00 0.00 0.00 62 1020.8
20210120021403 44 355 0.0 0.0 0.00 0.00 0.00 62 1020.8
20210120020906 44 355 0.0 0.0 0.00 0.00 0.00 61 1020.9
20210120020403 44 355 0.0 0.0 0.00 0.00 0.00 61 1020.9
20210120015909 44 355 0.0 0.0 0.00 0.00 0.00 61 1021.0
20210120015403 44 355 0.0 0.0 0.00 0.00 0.00 62 1021.0
20210120014905 44 355 0.0 2.0 0.00 0.00 0.00 62 1021.2
20210120014403 44 355 0.0 2.0 0.00 0.00 0.00 62 1021.2
20210120013903 44 355 0.0 2.0 0.00 0.00 0.00 62 1021.3
20210120013407 43 355 0.0 5.0 0.00 0.00 0.00 63 1021.3
20210120012903 43 14 1.0 2.0 0.00 0.00 0.00 63 1021.2
20210120012404 43 14 0.0 2.0 0.00 0.00 0.00 63 1021.3
20210120011903 43 14 0.0 0.0 0.00 0.00 0.00 63 1021.4
20210120011402 43 14 0.0 0.0 0.00 0.00 0.00 63 1021.2
20210120010902 43 14 0.0 0.0 0.00 0.00 0.00 62 1021.3
20210120010405 43 14 0.0 0.0 0.00 0.00 0.00 62 1021.3
20210120005910 44 14 0.0 0.0 0.00 0.00 0.00 62 1021.5
20210120005403 44 14 0.0 2.0 0.00 0.00 0.00 62 1021.5
20210120004903 44 14 0.0 0.0 0.00 0.00 0.00 61 1021.6
20210120004403 44 14 0.0 0.0 0.00 0.00 0.00 61 1021.6
20210120003903 44 14 0.0 2.0 0.00 0.00 0.00 60 1021.5
20210120003404 45 14 0.0 0.0 0.00 0.00 0.00 59 1021.5
20210120002903 45 14 0.0 0.0 0.00 0.00 0.00 59 1021.5
20210120002407 45 14 0.0 0.0 0.00 0.00 0.00 59 1021.5
20210120001903 45 14 0.0 2.0 0.00 0.00 0.00 57 1021.5
20210120001402 46 14 0.0 2.0 0.00 0.00 0.00 58 1021.6
20210120000907 46 14 0.0 0.0 0.00 0.00 0.00 56 1021.7
20210120000408 46 14 0.0 0.0 0.00 0.00 0.00 56 1021.7
20210119235939 47 14 0.0 0.0 0.00 0.00 0.00 55 1021.7
20210119235402 47 14 0.0 0.0 0.00 0.00 0.00 54 1021.8
20210119234904 47 14 0.0 0.0 0.00 0.00 0.00 54 1022.0
20210119234414 48 14 0.0 0.0 0.00 0.00 0.00 53 1022.0
20210119233904 48 14 0.0 0.0 0.00 0.00 0.00 52 1022.0
20210119233403 48 14 0.0 0.0 0.00 0.00 0.00 51 1022.2
20210119232905 49 14 0.0 0.0 0.00 0.00 0.00 51 1022.2
20210119232404 49 14 0.0 2.0 0.00 0.00 0.00 50 1022.2
20210119231903 49 14 0.0 0.0 0.00 0.00 0.00 49 1022.2
20210119231403 50 14 0.0 0.0 0.00 0.00 0.00 49 1022.2
20210119230904 50 14 0.0 0.0 0.00 0.00 0.00 49 1022.1
20210119230409 50 14 0.0 2.0 0.00 0.00 0.00 48 1022.1
20210119225908 51 14 0.0 0.0 0.00 0.00 0.00 49 1022.0
20210119225424 51 14 0.0 2.0 0.00 0.00 0.00 48 1022.1
20210119224903 51 14 0.0 2.0 0.00 0.00 0.00 49 1022.1
20210119224403 51 14 0.0 0.0 0.00 0.00 0.00 49 1022.1
20210119223904 52 14 0.0 2.0 0.00 0.00 0.00 48 1022.1
20210119223405 52 14 0.0 0.0 0.00 0.00 0.00 47 1022.0
20210119222903 52 14 0.0 2.0 0.00 0.00 0.00 47 1021.9
20210119222407 53 14 0.0 2.0 0.00 0.00 0.00 46 1022.0
20210119221903 53 14 0.0 0.0 0.00 0.00 0.00 46 1021.9
20210119221414 53 14 0.0 0.0 0.00 0.00 0.00 46 1021.9
20210119220907 54 14 1.0 5.0 0.00 0.00 0.00 47 1022.0
20210119220404 54 40 0.0 0.0 0.00 0.00 0.00 47 1022.1
20210119215904 54 40 0.0 2.0 0.00 0.00 0.00 45 1022.0
20210119215404 55 40 2.0 5.0 0.00 0.00 0.00 45 1022.1
20210119214904 55 70 0.0 2.0 0.00 0.00 0.00 45 1022.1
20210119214403 55 70 1.0 5.0 0.00 0.00 0.00 43 1022.0
20210119213905 55 111 1.0 5.0 0.00 0.00 0.00 43 1022.0
20210119213403 55 105 4.0 7.0 0.00 0.00 0.00 44 1021.9
20210119212903 55 145 5.0 5.0 0.00 0.00 0.00 44 1022.0
20210119212406 56 52 3.0 5.0 0.00 0.00 0.00 42 1022.0
20210119211910 56 85 5.0 13.0 0.00 0.00 0.00 43 1021.9
20210119211406 56 109 2.0 7.0 0.00 0.00 0.00 42 1021.8
20210119210903 57 80 3.0 9.0 0.00 0.00 0.00 42 1021.9
20210119210406 57 107 4.0 5.0 0.00 0.00 0.00 43 1021.9
20210119205904 57 103 4.0 7.0 0.00 0.00 0.00 43 1022.0
20210119205407 57 133 3.0 9.0 0.00 0.00 0.00 42 1022.0
20210119204903 57 190 4.0 5.0 0.00 0.00 0.00 40 1022.0
20210119204403 57 188 3.0 9.0 0.00 0.00 0.00 39 1022.0
20210119203904 57 117 2.0 9.0 0.00 0.00 0.00 40 1022.0
20210119203408 57 88 4.0 7.0 0.00 0.00 0.00 40 1021.9
20210119202904 57 58 3.0 5.0 0.00 0.00 0.00 40 1022.0
20210119202404 57 57 7.0 12.0 0.00 0.00 0.00 39 1021.8
20210119201904 57 261 5.0 9.0 0.00 0.00 0.00 39 1021.9
20210119201408 57 246 4.0 5.0 0.00 0.00 0.00 40 1021.9
20210119200904 57 81 3.0 7.0 0.00 0.00 0.00 41 1021.8
20210119200403 57 200 2.0 7.0 0.00 0.00 0.00 40 1021.8
20210119195904 57 184 4.0 7.0 0.00 0.00 0.00 41 1021.9
20210119195404 57 197 1.0 7.0 0.00 0.00 0.00 42 1021.8
20210119194904 57 146 3.0 5.0 0.00 0.00 0.00 40 1021.6
20210119194404 57 63 5.0 9.0 0.00 0.00 0.00 39 1021.8
20210119193905 57 144 6.0 7.0 0.00 0.00 0.00 37 1021.7
20210119193404 57 347 6.0 9.0 0.00 0.00 0.00 38 1021.7
20210119192904 56 170 3.0 12.0 0.00 0.00 0.00 37 1021.6
20210119192404 56 175 7.0 9.0 0.00 0.00 0.00 38 1021.8
20210119191904 56 278 6.0 9.0 0.00 0.00 0.00 40 1021.9
20210119191404 55 221 2.0 9.0 0.00 0.00 0.00 42 1021.9
20210119190905 55 187 5.0 7.0 0.00 0.00 0.00 42 1022.0
20210119190404 54 210 7.0 12.0 0.00 0.00 0.00 44 1022.0
20210119185905 54 121 2.0 5.0 0.00 0.00 0.00 45 1022.1
20210119185404 54 119 7.0 9.0 0.00 0.00 0.00 46 1022.2
20210119184904 53 103 5.0 7.0 0.00 0.00 0.00 47 1022.1
20210119184405 53 120 4.0 9.0 0.00 0.00 0.00 49 1022.3
20210119183904 53 80 3.0 7.0 0.00 0.00 0.00 49 1022.3
20210119183403 52 149 3.0 5.0 0.00 0.00 0.00 47 1022.3
20210119182903 52 151 5.0 7.0 0.00 0.00 0.00 47 1022.6
20210119182404 52 149 2.0 5.0 0.00 0.00 0.00 51 1022.7
20210119181907 51 149 2.0 5.0 0.00 0.00 0.00 52 1022.7
20210119181404 51 182 4.0 7.0 0.00 0.00 0.00 51 1022.9
20210119180903 50 112 1.0 7.0 0.00 0.00 0.00 56 1022.9
20210119180404 50 112 5.0 7.0 0.00 0.00 0.00 55 1023.1
20210119175903 49 138 5.0 9.0 0.00 0.00 0.00 56 1023.1
20210119175405 49 110 6.0 7.0 0.00 0.00 0.00 56 1023.1
20210119174903 48 123 3.0 7.0 0.00 0.00 0.00 56 1023.2
20210119174403 48 154 6.0 7.0 0.00 0.00 0.00 58 1023.2
20210119173905 47 154 3.0 5.0 0.00 0.00 0.00 59 1023.3
20210119173404 47 176 3.0 7.0 0.00 0.00 0.00 58 1023.4
20210119172903 47 187 3.0 7.0 0.00 0.00 0.00 60 1023.5
20210119172405 47 117 0.0 7.0 0.00 0.00 0.00 60 1023.3
20210119171904 46 108 1.0 7.0 0.00 0.00 0.00 58 1023.4
20210119171408 46 96 0.0 5.0 0.00 0.00 0.00 58 1023.5
20210119170903 46 96 2.0 5.0 0.00 0.00 0.00 59 1023.6
20210119170405 46 119 1.0 2.0 0.00 0.00 0.00 59 1023.7
20210119165904 46 119 3.0 7.0 0.00 0.00 0.00 58 1023.8
20210119165411 46 115 4.0 5.0 0.00 0.00 0.00 58 1023.9
20210119164905 46 118 1.0 5.0 0.00 0.00 0.00 58 1024.0
20210119164403 46 105 2.0 7.0 0.00 0.00 0.00 57 1024.0
20210119163904 46 142 1.0 5.0 0.00 0.00 0.00 57 1024.3
20210119163414 46 142 0.0 2.0 0.00 0.00 0.00 57 1024.3
20210119162906 47 140 3.0 7.0 0.00 0.00 0.00 56 1024.2
20210119162404 47 123 2.0 7.0 0.00 0.00 0.00 58 1024.2
20210119161904 46 98 3.0 7.0 0.00 0.00 0.00 60 1024.4
20210119161406 46 179 6.0 7.0 0.00 0.00 0.00 59 1024.3
20210119160905 45 151 3.0 7.0 0.00 0.00 0.00 59 1024.3
20210119160409 45 113 4.0 5.0 0.00 0.00 0.00 63 1024.3
20210119155903 44 107 2.0 5.0 0.00 0.00 0.00 66 1024.3
20210119155404 42 123 3.0 5.0 0.00 0.00 0.00 66 1024.2
20210119154904 41 124 2.0 7.0 0.00 0.00 0.00 69 1024.1
20210119154407 41 155 3.0 5.0 0.00 0.00 0.00 69 1024.3
20210119153905 40 161 2.0 5.0 0.00 0.00 0.00 69 1024.7
20210119153405 39 161 0.0 2.0 0.00 0.00 0.00 71 1024.6
20210119152908 39 161 2.0 5.0 0.00 0.00 0.00 72 1024.5
20210119152407 39 161 1.0 2.0 0.00 0.00 0.00 73 1024.6
20210119151904 38 161 1.0 2.0 0.00 0.00 0.00 73 1024.6
20210119151404 38 161 0.0 0.0 0.00 0.00 0.00 74 1024.6
20210119150904 38 161 0.0 2.0 0.00 0.00 0.00 75 1024.6
20210119150406 37 161 1.0 2.0 0.00 0.00 0.00 74 1024.6
20210119145904 37 161 0.0 0.0 0.00 0.00 0.00 77 1024.6
20210119145403 36 161 0.0 0.0 0.00 0.00 0.00 77 1024.5
20210119144904 36 161 0.0 0.0 0.00 0.00 0.00 78 1024.3
20210119144410 35 161 0.0 0.0 0.00 0.00 0.00 78 1024.5
20210119143905 35 161 0.0 0.0 0.00 0.00 0.00 78 1024.4
20210119143403 35 161 0.0 0.0 0.00 0.00 0.00 78 1024.5
20210119142906 35 161 0.0 0.0 0.00 0.00 0.00 78 1024.6
20210119142404 34 161 0.0 0.0 0.00 0.00 0.00 79 1024.7
20210119141907 34 161 0.0 0.0 0.00 0.00 0.00 78 1024.7
20210119141404 34 161 0.0 0.0 0.00 0.00 0.00 79 1024.6
20210119140904 34 161 0.0 0.0 0.00 0.00 0.00 79 1024.6
20210119140409 33 161 0.0 0.0 0.00 0.00 0.00 79 1024.4
20210119135903 33 161 0.0 0.0 0.00 0.00 0.00 81 1024.5
20210119135403 33 161 0.0 0.0 0.00 0.00 0.00 80 1024.4
20210119134904 33 161 0.0 0.0 0.00 0.00 0.00 80 1024.5
20210119134408 33 161 0.0 0.0 0.00 0.00 0.00 82 1024.4
20210119133903 33 161 0.0 0.0 0.00 0.00 0.00 83 1024.3
20210119133408 33 161 0.0 0.0 0.00 0.00 0.00 85 1024.3
20210119132904 32 161 0.0 0.0 0.00 0.00 0.00 85 1024.2
20210119132403 32 161 0.0 0.0 0.00 0.00 0.00 85 1024.2
20210119131903 32 161 0.0 0.0 0.00 0.00 0.00 85 1024.1
20210119131406 32 161 0.0 0.0 0.00 0.00 0.00 86 1023.9
20210119130904 31 161 0.0 0.0 0.00 0.00 0.00 86 1023.8
20210119130404 31 161 0.0 0.0 0.00 0.00 0.00 86 1023.8
20210119125906 31 161 0.0 0.0 0.00 0.00 0.00 86 1023.8
20210119125404 31 161 0.0 0.0 0.00 0.00 0.00 85 1023.7
20210119124904 30 161 0.0 0.0 0.00 0.00 0.00 85 1023.5
20210119124404 30 161 0.0 0.0 0.00 0.00 0.00 86 1023.7
20210119123909 30 161 0.0 2.0 0.00 0.00 0.00 86 1023.4
20210119123405 30 161 1.0 2.0 0.00 0.00 0.00 86 1023.3
20210119122903 30 161 2.0 5.0 0.00 0.00 0.00 86 1023.2
20210119122408 30 161 2.0 2.0 0.00 0.00 0.00 86 1023.3
20210119121907 30 161 0.0 0.0 0.00 0.00 0.00 85 1023.3
20210119121407 30 161 0.0 2.0 0.00 0.00 0.00 85 1023.3
20210119120920 31 161 0.0 0.0 0.00 0.00 0.00 85 1023.4
20210119120403 31 161 0.0 0.0 0.00 0.00 0.00 85 1023.5
20210119115906 31 161 0.0 0.0 0.00 0.00 0.00 85 1023.3
20210119115418 31 161 0.0 0.0 0.00 0.00 0.00 85 1023.1
20210119114910 30 161 0.0 2.0 0.00 0.00 0.00 85 1023.2
20210119114416 30 161 0.0 2.0 0.00 0.00 0.00 85 1023.2
20210119113910 30 161 4.0 7.0 0.00 0.00 0.00 85 1023.2
20210119113403 30 280 2.0 7.0 0.00 0.00 0.00 86 1023.2
20210119112904 30 278 3.0 5.0 0.00 0.00 0.00 86 1022.6
20210119112428 30 231 0.0 5.0 0.00 0.00 0.00 86 1022.6
20210119111919 30 233 0.0 2.0 0.00 0.00 0.00 86 1022.5
20210119111403 29 233 4.0 5.0 0.00 0.00 0.00 86 1022.6
20210119110904 29 203 3.0 5.0 0.00 0.00 0.00 86 1022.3
20210119110403 29 201 3.0 5.0 0.00 0.00 0.00 86 1022.4
20210119105903 29 194 0.0 5.0 0.00 0.00 0.00 86 1022.4
20210119105403 29 194 1.0 5.0 0.00 0.00 0.00 85 1022.3
20210119104905 29 193 1.0 5.0 0.00 0.00 0.00 85 1022.4
20210119104406 29 190 0.0 0.0 0.00 0.00 0.00 85 1022.4
20210119103904 29 190 0.0 0.0 0.00 0.00 0.00 85 1022.3
20210119103404 29 190 0.0 0.0 0.00 0.00 0.00 84 1022.2
20210119102903 29 190 0.0 0.0 0.00 0.00 0.00 84 1022.2
20210119102407 29 190 0.0 0.0 0.00 0.00 0.00 84 1022.0
20210119101904 29 190 0.0 0.0 0.00 0.00 0.00 84 1021.9
20210119101405 29 190 0.0 0.0 0.00 0.00 0.00 84 1022.0
20210119100907 29 190 0.0 0.0 0.00 0.00 0.00 84 1022.1
20210119100404 29 190 0.0 0.0 0.00 0.00 0.00 84 1022.1
20210119095903 29 190 0.0 0.0 0.00 0.00 0.00 84 1022.0
20210119095403 29 190 0.0 0.0 0.00 0.00 0.00 84 1021.9
20210119094912 29 190 0.0 0.0 0.00 0.00 0.00 85 1021.8
20210119094403 29 190 1.0 2.0 0.00 0.00 0.00 85 1021.7
20210119093904 29 190 0.0 0.0 0.00 0.00 0.00 84 1021.8
20210119093409 29 190 0.0 0.0 0.00 0.00 0.00 85 1021.7
20210119092904 29 190 1.0 2.0 0.00 0.00 0.00 85 1021.7
20210119092404 29 190 0.0 2.0 0.00 0.00 0.00 85 1021.5
20210119091905 29 190 0.0 2.0 0.00 0.00 0.00 85 1021.7
20210119091409 29 190 0.0 2.0 0.00 0.00 0.00 85 1021.5
20210119090904 29 190 0.0 5.0 0.00 0.00 0.00 85 1021.4
20210119090404 29 190 0.0 0.0 0.00 0.00 0.00 84 1021.3
20210119085913 29 190 0.0 0.0 0.00 0.00 0.00 84 1021.3
20210119085405 29 190 0.0 0.0 0.00 0.00 0.00 84 1021.3
20210119084903 29 190 0.0 0.0 0.00 0.00 0.00 84 1021.3
20210119084408 30 190 0.0 0.0 0.00 0.00 0.00 83 1021.2
20210119083923 30 190 0.0 0.0 0.00 0.00 0.00 83 1021.2
20210119083404 30 190 0.0 0.0 0.00 0.00 0.00 83 1021.2
20210119082903 30 190 0.0 0.0 0.00 0.00 0.00 84 1021.2
20210119082403 30 190 0.0 0.0 0.00 0.00 0.00 84 1021.4
20210119081904 30 190 0.0 0.0 0.00 0.00 0.00 84 1021.4
20210119081403 30 190 0.0 0.0 0.00 0.00 0.00 84 1021.4
20210119080904 30 190 0.0 0.0 0.00 0.00 0.00 84 1021.4
20210119080404 30 190 0.0 0.0 0.00 0.00 0.00 83 1021.3
20210119075904 30 190 0.0 0.0 0.00 0.00 0.00 83 1021.4
20210119075411 29 190 0.0 0.0 0.00 0.00 0.00 83 1021.4
20210119074904 29 190 0.0 0.0 0.00 0.00 0.00 82 1021.4
20210119074403 29 190 0.0 0.0 0.00 0.00 0.00 83 1021.4
20210119073904 29 190 0.0 0.0 0.00 0.00 0.00 82 1021.5
20210119073404 29 190 0.0 0.0 0.00 0.00 0.00 82 1021.3
20210119072908 29 190 0.0 0.0 0.00 0.00 0.00 82 1021.3
20210119072407 29 190 0.0 0.0 0.00 0.00 0.00 82 1021.2
20210119071905 29 190 0.0 0.0 0.00 0.00 0.00 82 1021.0
20210119071403 29 190 0.0 0.0 0.00 0.00 0.00 82 1021.0
20210119070903 29 190 0.0 0.0 0.00 0.00 0.00 81 1021.1
20210119070405 29 190 0.0 0.0 0.00 0.00 0.00 81 1021.2
20210119065905 29 190 0.0 0.0 0.00 0.00 0.00 80 1021.0
20210119065404 29 190 0.0 0.0 0.00 0.00 0.00 80 1021.0
20210119064909 29 190 0.0 0.0 0.00 0.00 0.00 80 1021.0
20210119064409 30 190 0.0 0.0 0.00 0.00 0.00 81 1021.0
20210119063904 30 190 0.0 2.0 0.00 0.00 0.00 82 1021.0
20210119063409 30 190 1.0 2.0 0.00 0.00 0.00 82 1020.9
20210119062904 30 190 0.0 0.0 0.00 0.00 0.00 81 1020.6
20210119062404 30 190 0.0 0.0 0.00 0.00 0.00 80 1020.4
20210119061906 30 190 0.0 2.0 0.00 0.00 0.00 79 1020.3
20210119061405 30 190 1.0 2.0 0.00 0.00 0.00 79 1020.2
20210119060908 30 190 0.0 2.0 0.00 0.00 0.00 78 1019.9
20210119060403 30 190 0.0 0.0 0.00 0.00 0.00 77 1020.0
20210119055906 31 190 0.0 0.0 0.00 0.00 0.00 78 1020.0
20210119055415 31 190 0.0 0.0 0.00 0.00 0.00 77 1020.0
20210119054904 31 190 0.0 0.0 0.00 0.00 0.00 76 1020.0
20210119054404 31 190 0.0 2.0 0.00 0.00 0.00 76 1020.0
20210119053905 32 190 0.0 0.0 0.00 0.00 0.00 76 1020.0
20210119053404 32 190 0.0 0.0 0.00 0.00 0.00 76 1020.0
20210119052904 32 190 0.0 0.0 0.00 0.00 0.00 75 1020.0
20210119052404 33 190 0.0 0.0 0.00 0.00 0.00 74 1020.0
20210119051904 33 190 0.0 0.0 0.00 0.00 0.00 73 1019.9
20210119051405 33 190 0.0 0.0 0.00 0.00 0.00 73 1020.0
20210119050905 33 190 0.0 0.0 0.00 0.00 0.00 72 1020.1
20210119050408 33 190 0.0 0.0 0.00 0.00 0.00 72 1020.2
20210119045908 34 190 0.0 0.0 0.00 0.00 0.00 71 1020.2
20210119045404 34 190 0.0 2.0 0.00 0.00 0.00 71 1020.4
20210119044905 34 190 0.0 0.0 0.00 0.00 0.00 71 1020.3
20210119044404 34 190 1.0 5.0 0.00 0.00 0.00 70 1020.3
20210119043905 35 190 0.0 0.0 0.00 0.00 0.00 69 1020.4
20210119043407 35 190 0.0 0.0 0.00 0.00 0.00 69 1020.5
20210119042903 35 190 0.0 0.0 0.00 0.00 0.00 69 1020.5
20210119042403 35 190 0.0 2.0 0.00 0.00 0.00 69 1020.5
20210119041905 35 190 2.0 5.0 0.00 0.00 0.00 69 1020.5
20210119041404 36 190 0.0 0.0 0.00 0.00 0.00 67 1020.5
20210119040904 36 190 1.0 2.0 0.00 0.00 0.00 68 1020.5
20210119040404 36 190 0.0 0.0 0.00 0.00 0.00 68 1020.4
20210119035905 36 190 0.0 0.0 0.00 0.00 0.00 68 1020.3
20210119035413 36 190 0.0 2.0 0.00 0.00 0.00 68 1020.2
20210119034903 36 190 0.0 0.0 0.00 0.00 0.00 68 1020.2
20210119034408 36 190 0.0 2.0 0.00 0.00 0.00 68 1020.1
20210119033906 36 190 0.0 2.0 0.00 0.00 0.00 68 1020.1
20210119033407 36 190 0.0 2.0 0.00 0.00 0.00 69 1020.0
20210119032904 36 190 0.0 2.0 0.00 0.00 0.00 68 1020.0
20210119032405 36 190 0.0 2.0 0.00 0.00 0.00 68 1020.0
20210119031904 36 190 1.0 2.0 0.00 0.00 0.00 68 1019.8
20210119031407 36 190 0.0 0.0 0.00 0.00 0.00 68 1019.7